User: anonymous   Login
Location: Unspecified
(0.0000°N, 0.0000°E)
Time: 07:19:28
(UTC+00:00)
Language:

CAS-4B - Orbit

View from above orbital plane
View from above orbital plane
View from above satellite
View from above satellite

Ground track
Ground track

The orbit data is extracted from the following two-line orbital elements,

1 42759U 17034B   20048.16226826  .00000033  00000-0  15556-4 0  9991
2 42759  43.0203 333.4258 0012205 341.7777 162.0105 15.09742608147633
Epoch (UTC): 17 February 2020 03:53:39
Eccentricity: 0.0012205
inclination: 43.0203°
perigee height: 528 km
apogee height: 545 km
right ascension of ascending node: 333.4258°
argument of perigee: 341.7777°
revolutions per day: 15.09742608
mean anomaly at epoch: 162.0105°
orbit number at epoch: 14763

The dashed part of the orbit path shows where the satellite is in the earth's shadow,  

DLR